This is the latest recevied weather packets stored in our database for station/object DG8SF-13. If no packets are shown the sender has not sent any weather packets the latest 10 day(s).
| Time | Temp. | Humidity | Pressure | Rain* | Wind** | Luminosity | Snow |
|---|---|---|---|---|---|---|---|
| 1777989774 | 16.67° C | 71% | 1006.5 hPa | 0 mm | - | - | - |
| 1777989461 | 16.67° C | 70% | 1006.4 hPa | 0 mm | - | - | - |
| 1777989153 | 17.22° C | 70% | 1006.5 hPa | 0 mm | - | - | - |
| 1777988838 | 17.78° C | 72% | 1006.8 hPa | 0 mm | - | - | - |
| 1777988528 | 16.67° C | 69% | 1007 hPa | 0.51 mm | - | - | - |
| 1777988212 | 17.22° C | 71% | 1006.9 hPa | 0.51 mm | - | - | - |
| 1777987904 | 16.67° C | 73% | 1007 hPa | 0.51 mm | - | - | - |
| 1777987589 | 16.67° C | 76% | 1007.2 hPa | 0.51 mm | - | - | - |
| 1777987278 | 16.67° C | 76% | 1007.2 hPa | 0.51 mm | - | - | - |
| 1777986964 | 16.11° C | 79% | 1007.2 hPa | 0.51 mm | - | - | - |
| 1777986654 | 15.56° C | 77% | 1007.4 hPa | 0.51 mm | - | - | - |
| 1777986341 | 15.56° C | 77% | 1007.4 hPa | 0.51 mm | - | - | - |
| 1777986031 | 15.56° C | 80% | 1007.3 hPa | 0.51 mm | - | - | - |
| 1777985716 | 15.56° C | 80% | 1007.4 hPa | 0.51 mm | - | - | - |
| 1777985408 | 15.56° C | 82% | 1007.5 hPa | 0.51 mm | - | - | - |
| 1777985094 | 16.11° C | 81% | 1007.5 hPa | 0.51 mm | - | - | - |
| 1777984784 | 16.11° C | 77% | 1007.4 hPa | 0 mm | - | - | - |
| 1777984469 | 16.67° C | 73% | 1007.5 hPa | 0 mm | - | - | - |
| 1777984159 | 17.22° C | 71% | 1007.5 hPa | 0 mm | - | - | - |
| 1777983847 | 17.78° C | 64% | 1007.3 hPa | 0 mm | - | - | - |
| 1777983534 | 17.78° C | 63% | 1007.4 hPa | 0 mm | - | - | - |
| 1777983221 | 17.78° C | 64% | 1007.3 hPa | 0 mm | - | - | - |
| 1777982912 | 18.33° C | 62% | 1007.2 hPa | 0 mm | - | - | - |
| 1777982595 | 18.89° C | 61% | 1007.1 hPa | 0 mm | - | - | - |
| 1777982286 | 18.89° C | 63% | 1007.1 hPa | 0 mm | - | - | - |
* Rain latest hour (hover to see other rain measurements)
** Current wind speed in m/s (hover to see current wind gust speed)